Preview of NWS' New Version of Forecast
This preview is not operational and should not be used for support decisions.

Regional Weather Roundup (RWR)

Issued by National Weather Service (NWS)

                            
000
ASUS44 KMEG 192110
RWRTN 
TENNESSEE HOURLY STATE WEATHER ROUNDUP
NATIONAL WEATHER SERVICE MEMPHIS TN
400 PM CDT WED JUN 19 2019

TNZ002-004-019-021-049-052-054-088>092-192200-
WEST TENNESSEE
  
CITY           SKY/WX    TMP DP  RH WIND       PRES   REMARKS
MEMPHIS INTL   FAIR      91  72  53 SW12G22   29.71F HX  98           
NWS MEMPHIS      N/A    N/A N/A N/A MISG        N/A                   
JACKSON        FAIR      89  73  59 SW10      29.71F HX  97           
DYERSBURG      FAIR      88  74  63 SW8       29.68F HX  96           
COVINGTON      MOSUNNY   90  70  51 SW20G26   29.68S HX  95           
UNION CITY     MOSUNNY   73  72  94 W6G18     29.67R FOG              
BOLIVAR        MOSUNNY   90  72  55 S14G21    29.71F HX  96           
PARIS          PTSUNNY   84  72  65 S10       29.67F                  
HUNTINGDON     MOSUNNY   86  72  62 SW9G18    29.68F HX  92           
LEXINGTON      PTSUNNY   90  72  55 MISG      29.70F HX  96           
SELMER         MOSUNNY   88  72  58 SW8G21    29.72F HX  94           
SAVANNAH       MOSUNNY   90  70  51 SW17      29.72F HX  95           
$$

TNZ008-025-027-028-033-062-065-066-192200-
NORTH MIDDLE TENNESSEE
  
CITY           SKY/WX    TMP DP  RH WIND       PRES   REMARKS
NASHVILLE      PTSUNNY   87  68  52 VRB7      29.72F HX  90           
DICKSON        PTCLDY    86  70  58 SW16      29.72S HX  90           
PORTLAND       MOSUNNY   84  70  61 SW8       29.71F                  
CLARKSVILLE    FAIR      86  72  62 SW10      29.69F HX  92           
LEBANON        CLEAR     86  72  62 SW13      29.70F HX  92           
SMYRNA         FAIR      86  72  62 SW9       29.73F HX  92           
MURFREESBORO   CLEAR     88  68  51 SW14      29.72F HX  91           
COOKEVILLE     PTSUNNY   81  72  74 VRB7      29.76F                  
LIVINGSTON     PTCLDY    75  70  83 SW7       29.77F                  
GALLATIN       PTCLDY    86  72  62 VRB6G13   29.74F HX  92           
CROSSVILLE     FAIR      77  69  76 NW5       29.82F                  
ROCKWOOD       MOCLDY    81  72  74 VRB5      29.80F                  
$$

TNZ061-075-076-078-094-096-097-192200-
SOUTH MIDDLE TENNESSEE
  
CITY           SKY/WX    TMP DP  RH WIND       PRES   REMARKS
LAWRENCEBURG   PTCLDY    86  70  58 SW8G16    29.76S HX  90           
LEWISBURG      PTCLDY    86  72  62 SW5G13    29.73F HX  92           
FAYETTEVILLE   MOSUNNY   86  70  58 W12G17    29.77F HX  90           
TULLAHOMA      MOSUNNY   84  70  61 S8G18     29.77F                  
WINCHESTER     SUNNY     84  70  61 SW12G17   29.78S                  
MCMINNVILLE    MOSUNNY   84  70  61 W9        29.77F                  
COLUMBIA       MOSUNNY   86  72  62 SW12G18   29.72F HX  92           
SHELBYVILLE    SUNNY     86  70  58 SW13G18   29.75F HX  90           
$$

TNZ017-018-042-046-047-192200-
NORTHEAST TENNESSEE
  
CITY           SKY/WX    TMP DP  RH WIND       PRES   REMARKS
TRI CITIES     PTSUNNY   82  68  62 W10       29.81F                  
ELIZABETHTON   PTSUNNY   79  70  73 SW10G16   29.81F                  
GREENEVILLE    MOCLDY    79  70  73 W7        29.81F                  
$$

TNZ012-013-036-069-073-074-192200-
CENTRAL EAST TENNESSEE
  
CITY           SKY/WX    TMP DP  RH WIND       PRES   REMARKS
KNOXVILLE      PTSUNNY   83  70  64 SW10      29.76F                  
OAK RIDGE      PTSUNNY   85  69  58 VRB5      29.77F                  
DOWNTOWN KNOXV PTSUNNY   84  72  65 VRB5G12   29.76F                  
GATLINBURG     MOSUNNY   86  70  58 SW9       29.78F HX  90           
MORRISTOWN     PTSUNNY   81  72  74 SW10      29.79F                  
JACKSBORO      MOSUNNY   81  72  74 N7        29.80F                  
$$

TNZ083-085-099-192200-
SOUTHEAST TENNESSEE
  
CITY           SKY/WX    TMP DP  RH WIND       PRES   REMARKS
CHATTANOOGA    PTSUNNY   88  68  51 S8        29.77F HX  91           
$$

SKY/WX REPORTED AS FAIR MEANS FEW OR NO CLOUDS BELOW
12 THOUSAND FEET.